Manhattan, KS

11:18 PM CST on December 09, 2019 (GMT -0600)
Manhattan Regional

Weather History for KMHK - October, 2019

Change the Weather History Date:

Friday, October 18, 2019

  Actual Average Record
Temperature  
Mean Temperature 67 °F 54 °F  
Max Temperature 78 °F 67 °F 87 °F (2005)
Min Temperature 55 °F 41 °F 24 °F (1999)
Degree Days  
Heating Degree Days 0 11  
Month to date heating degree days 158 153  
Since 1 July heating degree days 159 223  
Cooling Degree Days 2 0  
Month to date cooling degree days 15 21  
Year to date cooling degree days 1610 1358  
Growing Degree Days 16 (Base 50)    
Moisture  
Dew Point 46 °F    
Average Humidity 58    
Maximum Humidity 80    
Minimum Humidity 35    
Precipitation  
Precipitation 0.02 in 0.07 in 0.39 in (2013)
Month to date precipitation 2.62 1.40  
Year to date precipitation 40.60 29.11  
Sea Level Pressure  
Sea Level Pressure 29.66 in    
Wind  
Wind Speed 13 mph (South)    
Max Wind Speed 28 mph    
Max Gust Speed 40 mph    
Visibility 10 miles    
Events Rain , Thunderstorm    
T = Trace of Precipitation, MM = Missing Value Source: NWS Daily Summary

Daily Weather History Graph

Daily Weather History Graph

Search for Another Location

Airport or City:

Astronomy

Oct. 18, 2019 Rise Set
Actual Time 7:39 AM CDT 6:43 PM CDT
Civil Twilight 7:12 AM CDT 7:10 PM CDT
Nautical Twilight 6:41 AM CDT 7:41 PM CDT
Astronomical Twilight 6:10 AM CDT 8:12 PM CDT
Moon 10:03 PM CDT (10/18) 12:11 PM CDT (10/18)
Length of Visible Light 11h 58m
Length of Day
11h 04m
Waning Gibbous, 78% of the Moon is Illuminated
Oct 18
Waning Gibbous
Oct 21
Last Quarter
Oct 27
New
Nov 4
First Quarter
Nov 12
Full

Hourly Weather History & Observations

Time (CDT) Temp. Dew Point Humidity Pressure Visibility Wind Dir Wind Speed Gust Speed Precip Events Conditions
12:52 AM 59.0 °F 45.0 °F 60% 29.76 in 10.0 mi South 9.2 mph - N/A   Clear
1:52 AM 57.9 °F 45.0 °F 62% 29.75 in 10.0 mi SSW 9.2 mph - N/A   Clear
2:52 AM 57.9 °F 45.0 °F 62% 29.75 in 10.0 mi South 9.2 mph 19.6 mph N/A   Clear
3:52 AM 57.0 °F 44.1 °F 62% 29.74 in 10.0 mi South 6.9 mph - N/A   Clear
4:52 AM 57.9 °F 43.0 °F 58% 29.73 in 10.0 mi South 11.5 mph 19.6 mph N/A   Clear
5:52 AM 57.9 °F 41.0 °F 53% 29.72 in 10.0 mi South 12.7 mph 23.0 mph N/A   Clear
6:52 AM 55.9 °F 42.1 °F 60% 29.72 in 10.0 mi South 13.8 mph 19.6 mph N/A   Clear
7:52 AM 55.0 °F 39.9 °F 57% 29.71 in 10.0 mi SSW 10.4 mph - N/A   Clear
8:52 AM 59.0 °F 41.0 °F 51% 29.71 in 10.0 mi SSW 13.8 mph - N/A   Clear
9:52 AM 63.0 °F 42.1 °F 46% 29.69 in 10.0 mi South 13.8 mph 24.2 mph N/A   Clear
10:52 AM 66.9 °F 45.0 °F 45% 29.66 in 10.0 mi South 16.1 mph 31.1 mph N/A   Clear
11:52 AM 71.1 °F 46.9 °F 42% 29.64 in 10.0 mi South 19.6 mph 27.6 mph N/A   Clear
12:52 PM 73.9 °F 48.0 °F 40% 29.62 in 10.0 mi South 24.2 mph 35.7 mph N/A   Clear
1:52 PM 75.9 °F 48.9 °F 38% 29.59 in 10.0 mi South 23.0 mph 38.0 mph N/A   Clear
2:52 PM 78.1 °F 48.9 °F 36% 29.56 in 10.0 mi South 24.2 mph 35.7 mph N/A   Clear
3:52 PM 78.1 °F 50.0 °F 37% 29.55 in 10.0 mi South 24.2 mph 34.5 mph N/A   Clear
4:52 PM 75.9 °F 48.0 °F 37% 29.56 in 10.0 mi South 18.4 mph 29.9 mph N/A   Clear
5:52 PM 73.0 °F 46.9 °F 39% 29.56 in 10.0 mi South 16.1 mph 29.9 mph N/A   Clear
6:52 PM 68.0 °F 46.0 °F 45% 29.57 in 10.0 mi South 15.0 mph - N/A   Clear
7:52 PM 64.9 °F 45.0 °F 48% 29.60 in 10.0 mi South 10.4 mph - N/A   Clear
8:52 PM 63.0 °F 45.0 °F 52% 29.62 in 10.0 mi South 6.9 mph - N/A   Clear
9:52 PM 59.0 °F 46.0 °F 62% 29.62 in 10.0 mi ESE 4.6 mph - N/A   Clear
10:52 PM 60.1 °F 48.0 °F 64% 29.65 in 10.0 mi Calm Calm - N/A   Partly Cloudy
11:22 PM 59.0 °F 48.9 °F 69% 29.69 in 10.0 mi Calm Calm - N/A Thunderstorm Thunderstorm
11:49 PM 57.2 °F 51.8 °F 82% 29.72 in 10.0 mi West 4.6 mph - 0.01 in Rain , Thunderstorm Light Rain
11:52 PM 57.9 °F 52.0 °F 81% 29.70 in 10.0 mi West 3.5 mph - 0.01 in Thunderstorm Mostly Cloudy